QFA923 YBCS-YSSY

Flight info

Callsign QFA923
Flight time N/A
Altitude 41000
Route CS Y177 AKROM Y153 ROKUU H652 BOREE
Aircraft A332/H-SDE3GHIJ2J3J5M1RVWXY/LB2D1

Departure

Time N/A
Airport Cairns International Airport (YBCS)

Arrival

Time 2026-05-04 02:58
Airport Sydney Kingsford Smith International Airport (YSSY)
Time Latitude Longitude Altitude Speed Heading
2026-05-04 02:39 -33.73468 151.13998 8038 ft 301 kts 173°
2026-05-04 02:39 -33.75545 151.14403 8034 ft 300 kts 173°
2026-05-04 02:40 -33.77603 151.14801 8043 ft 300 kts 173°
2026-05-04 02:40 -33.79659 151.15199 8041 ft 300 kts 174°
2026-05-04 02:40 -33.81739 151.15271 8038 ft 296 kts 189°
2026-05-04 02:40 -33.83734 151.14821 8047 ft 294 kts 197°
2026-05-04 02:41 -33.85740 151.14227 8052 ft 294 kts 198°
2026-05-04 02:41 -33.87703 151.13629 8054 ft 294 kts 198°
2026-05-04 02:41 -33.89698 151.13032 8053 ft 294 kts 198°
2026-05-04 02:41 -33.91692 151.12444 8053 ft 294 kts 198°
2026-05-04 02:42 -33.93689 151.11867 8051 ft 294 kts 198°
2026-05-04 02:42 -33.95663 151.11296 8054 ft 294 kts 198°
2026-05-04 02:42 -33.97659 151.10719 8052 ft 294 kts 198°
2026-05-04 02:42 -33.99672 151.10139 8052 ft 294 kts 198°
2026-05-04 02:43 -34.01659 151.09567 8042 ft 294 kts 198°
2026-05-04 02:43 -34.03643 151.08990 7810 ft 295 kts 197°
2026-05-04 02:43 -34.05642 151.08412 7511 ft 295 kts 197°
2026-05-04 02:43 -34.07669 151.07936 7220 ft 297 kts 187°
2026-05-04 02:44 -34.09747 151.08081 6959 ft 300 kts 173°
2026-05-04 02:44 -34.11773 151.08583 6688 ft 300 kts 168°
2026-05-04 02:44 -34.13814 151.09155 6406 ft 299 kts 168°
2026-05-04 02:44 -34.15850 151.09720 6132 ft 297 kts 169°
2026-05-04 02:45 -34.17845 151.10259 5869 ft 296 kts 169°
2026-05-04 02:45 -34.19849 151.10786 5612 ft 294 kts 169°
2026-05-04 02:45 -34.21865 151.11307 5406 ft 291 kts 169°
2026-05-04 02:45 -34.23834 151.11813 5196 ft 288 kts 169°
2026-05-04 02:46 -34.25784 151.12315 4953 ft 287 kts 169°
2026-05-04 02:46 -34.27726 151.12816 4750 ft 284 kts 169°
2026-05-04 02:46 -34.29641 151.13312 4580 ft 280 kts 169°
2026-05-04 02:46 -34.31541 151.13802 4410 ft 277 kts 169°
2026-05-04 02:47 -34.33425 151.14290 4252 ft 273 kts 169°
2026-05-04 02:47 -34.35216 151.14934 4097 ft 269 kts 149°
2026-05-04 02:47 -34.36475 151.16505 3958 ft 257 kts 110°
2026-05-04 02:47 -34.36712 151.18536 3848 ft 237 kts 73°
2026-05-04 02:48 -34.36127 151.20293 3744 ft 220 kts 49°
2026-05-04 02:48 -34.35083 151.21555 3635 ft 207 kts 27°
2026-05-04 02:48 -34.33805 151.22217 3521 ft 195 kts
2026-05-04 02:48 -34.32484 151.22362 3408 ft 187 kts 359°
2026-05-04 02:49 -34.31207 151.22426 3295 ft 182 kts 359°
2026-05-04 02:49 -34.29954 151.22496 3176 ft 174 kts 360°
2026-05-04 02:49 -34.28776 151.22574 2996 ft 164 kts 360°
2026-05-04 02:49 -34.27674 151.22653 2805 ft 154 kts
2026-05-04 02:50 -34.26636 151.22731 2634 ft 145 kts
2026-05-04 02:50 -34.25646 151.22809 2434 ft 139 kts
2026-05-04 02:50 -34.24689 151.22884 2179 ft 137 kts 360°
2026-05-04 02:50 -34.23740 151.22958 1914 ft 135 kts
2026-05-04 02:51 -34.22819 151.23030 1827 ft 134 kts
2026-05-04 02:51 -34.21870 151.23106 1825 ft 135 kts
2026-05-04 02:51 -34.20935 151.23183 1823 ft 136 kts
2026-05-04 02:51 -34.19984 151.23261 1822 ft 136 kts
2026-05-04 02:52 -34.19040 151.23337 1826 ft 136 kts
2026-05-04 02:52 -34.18104 151.23407 1828 ft 135 kts 358°
2026-05-04 02:52 -34.17149 151.23373 1825 ft 135 kts 353°
2026-05-04 02:52 -34.16219 151.23215 1825 ft 135 kts 347°
2026-05-04 02:53 -34.15295 151.22980 1821 ft 136 kts 347°
2026-05-04 02:53 -34.14370 151.22742 1822 ft 136 kts 347°
2026-05-04 02:53 -34.13437 151.22499 1822 ft 136 kts 347°
2026-05-04 02:53 -34.12513 151.22260 1817 ft 136 kts 347°
2026-05-04 02:54 -34.11590 151.22020 1817 ft 136 kts 347°
2026-05-04 02:54 -34.10657 151.21776 1819 ft 136 kts 347°
2026-05-04 02:54 -34.09736 151.21535 1823 ft 136 kts 346°
2026-05-04 02:54 -34.08810 151.21287 1825 ft 136 kts 347°
2026-05-04 02:55 -34.06959 151.20799 1821 ft 136 kts 347°
2026-05-04 02:55 -34.06023 151.20555 1825 ft 136 kts 347°
2026-05-04 02:55 -34.05097 151.20314 1738 ft 137 kts 347°
2026-05-04 02:56 -34.04173 151.20073 1556 ft 135 kts 347°
2026-05-04 02:56 -34.03254 151.19835 1380 ft 135 kts 347°
2026-05-04 02:56 -34.02330 151.19594 1209 ft 134 kts 347°
2026-05-04 02:56 -34.01424 151.19359 1035 ft 134 kts 347°
2026-05-04 02:57 -34.00499 151.19122 857 ft 134 kts 348°
2026-05-04 02:57 -33.99594 151.18892 678 ft 135 kts 347°
2026-05-04 02:57 -33.98651 151.18649 545 ft 138 kts 348°
2026-05-04 02:57 -33.97697 151.18401 333 ft 146 kts 348°
2026-05-04 02:58 -33.96670 151.18126 131 ft 151 kts 348°
2026-05-04 02:58 -33.95687 151.17874 37 ft 122 kts 348°
2026-05-04 02:58 -33.95106 151.17725 37 ft 51 kts 347°
2026-05-04 02:58 -33.94861 151.17660 37 ft 28 kts 348°
2026-05-04 02:59 -33.94682 151.17644 37 ft 25 kts
2026-05-04 02:59 -33.94510 151.17683 37 ft 18 kts 18°
2026-05-04 02:59 -33.94382 151.17731 37 ft 16 kts
2026-05-04 02:59 -33.94348 151.17732 37 ft 5 kts 358°
2026-05-04 03:00 -33.94295 151.17723 37 ft 10 kts 347°
2026-05-04 03:00 -33.94200 151.17693 37 ft 16 kts 347°
2026-05-04 03:00 -33.94080 151.17659 37 ft 18 kts 346°
2026-05-04 03:00 -33.93953 151.17624 37 ft 18 kts 347°
2026-05-04 03:01 -33.93826 151.17589 37 ft 18 kts 347°
2026-05-04 03:01 -33.93696 151.17557 37 ft 19 kts 349°
2026-05-04 03:01 -33.93616 151.17537 37 ft 11 kts 348°
2026-05-04 03:01 -33.93532 151.17514 37 ft 12 kts 348°
2026-05-04 03:02 -33.93439 151.17505 37 ft 13 kts
2026-05-04 03:02 -33.93340 151.17493 37 ft 14 kts 348°
2026-05-04 03:02 -33.93237 151.17465 37 ft 15 kts 347°
2026-05-04 03:02 -33.93140 151.17439 37 ft 11 kts 349°
2026-05-04 03:03 -33.93078 151.17480 37 ft 5 kts 60°
2026-05-04 03:03 -33.93090 151.17511 37 ft 5 kts 151°
2026-05-04 03:03 -33.93124 151.17537 37 ft 5 kts 121°
2026-05-04 03:03 -33.93143 151.17589 37 ft 6 kts 113°
2026-05-04 03:04 -33.93155 151.17621 37 ft 2 kts 114°
2026-05-04 03:04 -33.93157 151.17625 37 ft 0 kts 114°